Location: Seven Kings
(51.5667°N, 0.1000°E)
Time: 18:28:30
(UTC+00:00)

X-37B - Pass Details

Date: 20 June 2021
Orbit: 383 x 392 km, 45.0° (Epoch: 01 July)

Event Time Altitude Azimuth Distance (km) Brightness Sun altitude
Exits shadow 02:01:00 15° 231° (SW) 1,139 2.4 -10.5°
Maximum altitude 02:02:42 23° 188° (S) 875 1.8 -10.4°
Drops below altitude 10° 02:05:17 10° 134° (SE) 1,406 3.3 -10.2°
Sets 02:07:36 0° 119° (ESE) 2,261 4.5 -10.0°
